Hillsdale, MI

6:36 PM EST on November 12, 2019 (GMT -0500)
Hillsdale Municipal

Weather History for KJYM - September, 2019

Change the Weather History Date:

Friday, September 6, 2019

  Actual Average Record
Temperature  
Mean Temperature 60 °F -  
Max Temperature 67 °F 77 °F 91 °F (1954)
Min Temperature 52 °F 52 °F 34 °F (1962)
Degree Days  
Heating Degree Days 6    
Growing Degree Days 10 (Base 50)    
Moisture  
Dew Point 57 °F    
Average Humidity 90    
Maximum Humidity 97    
Minimum Humidity 76    
Precipitation  
Precipitation 0.01 in - - ()
Sea Level Pressure  
Sea Level Pressure 29.94 in    
Wind  
Wind Speed 3 mph ()    
Max Wind Speed 12 mph    
Max Gust Speed 20 mph    
Visibility 7.8 miles    
Events Rain    
Averages and records for this station are not official NWS values.
T = Trace of Precipitation, MM = Missing Value Source: Averaged Metar Reports

Daily Weather History Graph

Daily Weather History Graph

Search for Another Location

Airport or City:

Astronomy

Sep. 06, 2019 Rise Set
Actual Time 7:08 AM EDT 8:03 PM EDT
Civil Twilight 6:40 AM EDT 8:32 PM EDT
Nautical Twilight 6:06 AM EDT 9:05 PM EDT
Astronomical Twilight 5:31 AM EDT 9:40 PM EDT
Moon 3:23 PM EDT (9/6) 12:13 AM EDT (9/6)
Length of Visible Light 13h 51m
Length of Day
12h 54m
First Quarter, 55% of the Moon is Illuminated
Sep 6
First Quarter
Sep 14
Full
Sep 21
Last Quarter
Sep 28
New
Oct 5
First Quarter

Hourly Weather History & Observations

Time (EDT) Temp. Dew Point Humidity Pressure Visibility Wind Dir Wind Speed Gust Speed Precip Events Conditions
12:18 AM 54.3 °F 52.3 °F 93% 30.07 in 10.0 mi Calm Calm - N/A   Clear
12:36 AM 53.6 °F 52.5 °F 96% 30.05 in 5.0 mi Calm Calm - N/A   Clear
12:55 AM 54.1 °F 53.1 °F 96% 30.03 in 7.0 mi SSE 8.1 mph - N/A   Clear
12:56 AM 54.3 °F 53.2 °F 96% 30.03 in 10.0 mi SSE 6.9 mph - N/A   Clear
1:15 AM 56.3 °F 54.5 °F 94% 30.03 in 10.0 mi South 4.6 mph - N/A   Clear
1:39 AM 55.6 °F 53.6 °F 93% 30.01 in 10.0 mi SSE 5.8 mph - N/A   Clear
1:57 AM 56.3 °F 53.8 °F 91% 30.03 in 10.0 mi Calm Calm - N/A   Clear
2:15 AM 53.1 °F 51.1 °F 93% 30.03 in 10.0 mi Calm Calm - N/A   Clear
2:16 AM 53.1 °F 51.3 °F 94% 30.03 in 10.0 mi Calm Calm - N/A   Clear
2:35 AM 54.7 °F 53.2 °F 95% 30.02 in 10.0 mi Calm Calm - N/A   Clear
2:36 AM 54.9 °F 53.4 °F 95% 30.02 in 10.0 mi Calm Calm - N/A   Clear
2:55 AM 54.9 °F 53.1 °F 94% 30.02 in 10.0 mi South 3.5 mph - N/A   Clear
3:18 AM 54.5 °F 52.7 °F 94% 30.01 in 10.0 mi South 4.6 mph - N/A   Clear
3:36 AM 55.0 °F 53.2 °F 94% 30.00 in 10.0 mi Calm Calm - N/A   Clear
3:55 AM 55.0 °F 53.1 °F 93% 30.01 in 10.0 mi Calm Calm - N/A   Clear
3:56 AM 54.9 °F 52.9 °F 93% 30.01 in 10.0 mi Calm Calm - N/A   Clear
4:15 AM 53.4 °F 51.4 °F 93% 30.01 in 10.0 mi Calm Calm - N/A   Clear
4:16 AM 53.2 °F 51.3 °F 93% 30.01 in 10.0 mi Calm Calm - N/A   Clear
4:39 AM 53.8 °F 52.3 °F 95% 30.00 in 10.0 mi Calm Calm - N/A   Clear
4:57 AM 54.5 °F 52.7 °F 94% 30.00 in 10.0 mi South 3.5 mph - N/A   Clear
5:15 AM 53.8 °F 52.2 °F 94% 29.98 in 10.0 mi South 3.5 mph - N/A   Clear
5:16 AM 53.8 °F 52.2 °F 94% 29.98 in 10.0 mi South 3.5 mph - N/A   Clear
5:35 AM 52.7 °F 51.4 °F 95% 29.98 in 10.0 mi South 3.5 mph - N/A   Clear
5:36 AM 52.5 °F 51.4 °F 96% 29.98 in 10.0 mi South 3.5 mph - N/A   Clear
5:55 AM 52.9 °F 51.8 °F 96% 29.98 in 7.0 mi Calm Calm - N/A   Clear
6:18 AM 53.8 °F 52.3 °F 95% 29.98 in 10.0 mi South 3.5 mph - N/A   Scattered Clouds
6:36 AM 54.5 °F 52.7 °F 94% 29.96 in 10.0 mi SSE 4.6 mph - N/A   Mostly Cloudy
6:55 AM 53.8 °F 52.0 °F 94% 29.97 in 10.0 mi South 3.5 mph - N/A   Scattered Clouds
6:56 AM 53.8 °F 52.0 °F 94% 29.97 in 10.0 mi South 3.5 mph - N/A   Scattered Clouds
7:15 AM 53.4 °F 52.0 °F 95% 29.96 in 7.0 mi SSE 4.6 mph - N/A   Mostly Cloudy
7:39 AM 54.7 °F 52.9 °F 94% 29.95 in 7.0 mi SSE 4.6 mph - N/A   Overcast
7:57 AM 55.0 °F 53.1 °F 93% 29.96 in 10.0 mi South 3.5 mph - N/A   Overcast
8:15 AM 55.6 °F 53.6 °F 93% 29.95 in 10.0 mi SSE 4.6 mph - N/A   Overcast
8:16 AM 55.8 °F 53.6 °F 92% 29.94 in 10.0 mi SSE 4.6 mph - N/A   Overcast
8:35 AM 56.7 °F 54.0 °F 91% 29.94 in 10.0 mi SSE 5.8 mph - N/A   Overcast
8:55 AM 57.6 °F 54.5 °F 90% 29.94 in 10.0 mi South 4.6 mph - N/A   Overcast
9:18 AM 58.5 °F 54.7 °F 87% 29.94 in 10.0 mi South 6.9 mph - N/A   Overcast
9:36 AM 59.0 °F 54.5 °F 85% 29.93 in 10.0 mi South 6.9 mph - N/A   Overcast
9:55 AM 59.9 °F 55.4 °F 85% 29.92 in 10.0 mi South 6.9 mph - N/A   Overcast
9:56 AM 59.9 °F 55.4 °F 85% 29.93 in 10.0 mi South 8.1 mph - N/A   Overcast
10:15 AM 60.1 °F 55.4 °F 85% 29.92 in 10.0 mi South 6.9 mph - N/A   Overcast
10:39 AM 60.3 °F 55.6 °F 85% 29.93 in 7.0 mi South 4.6 mph - N/A Rain Light Rain
10:57 AM 61.7 °F 56.8 °F 84% 29.92 in 10.0 mi SSW 6.9 mph - N/A   Overcast
11:15 AM 62.2 °F 56.7 °F 82% 29.91 in 10.0 mi South 5.8 mph - N/A   Overcast
11:16 AM 62.4 °F 57.0 °F 82% 29.91 in 10.0 mi South 6.9 mph - N/A   Overcast
11:35 AM 62.6 °F 56.1 °F 79% 29.91 in 10.0 mi SSW 9.2 mph - N/A   Overcast
11:55 AM 62.1 °F 56.3 °F 81% 29.91 in 10.0 mi South 8.1 mph - N/A   Overcast
12:18 PM 63.0 °F 56.5 °F 79% 29.91 in 10.0 mi South 4.6 mph - N/A   Overcast
12:36 PM 63.7 °F 57.2 °F 79% 29.90 in 10.0 mi SSW 6.9 mph - N/A   Overcast
12:55 PM 64.9 °F 57.7 °F 77% 29.89 in 10.0 mi SSW 8.1 mph - N/A   Overcast
1:15 PM 65.3 °F 57.9 °F 77% 29.89 in 10.0 mi South 11.5 mph 19.6 mph N/A   Overcast
1:39 PM 65.3 °F 57.6 °F 76% 29.89 in 10.0 mi South 5.8 mph - N/A   Overcast
1:57 PM 65.7 °F 58.1 °F 77% 29.89 in 10.0 mi South 4.6 mph - N/A   Overcast
2:16 PM 65.5 °F 58.3 °F 77% 29.89 in 10.0 mi South 5.8 mph - N/A   Overcast
2:35 PM 66.0 °F 58.6 °F 77% 29.88 in 10.0 mi SSW 3.5 mph - N/A   Overcast
2:55 PM 66.0 °F 59.0 °F 78% 29.88 in 10.0 mi SW 6.9 mph - N/A   Overcast
3:18 PM 65.8 °F 59.7 °F 81% 29.88 in 10.0 mi SW 6.9 mph - N/A   Overcast
3:36 PM 67.1 °F 60.1 °F 78% 29.87 in 10.0 mi SW 4.6 mph - N/A   Overcast
3:55 PM 66.6 °F 59.9 °F 79% 29.87 in 10.0 mi SW 6.9 mph - N/A   Overcast
3:56 PM 66.6 °F 59.9 °F 79% 29.87 in 10.0 mi SW 5.8 mph - N/A   Overcast
4:15 PM 67.1 °F 60.4 °F 79% 29.87 in 10.0 mi West 6.9 mph - N/A   Overcast
4:39 PM 66.6 °F 60.8 °F 82% 29.88 in 10.0 mi West 8.1 mph - N/A   Overcast
4:57 PM 66.2 °F 60.8 °F 83% 29.89 in 10.0 mi West 6.9 mph - N/A   Overcast
5:15 PM 65.8 °F 61.2 °F 85% 29.88 in 7.0 mi WNW 3.5 mph - N/A   Overcast
5:16 PM 65.8 °F 61.3 °F 85% 29.88 in 7.0 mi WNW 4.6 mph - N/A   Overcast
5:35 PM 65.7 °F 61.3 °F 86% 29.89 in 4.0 mi WNW 5.8 mph - N/A   Haze
5:36 PM 65.7 °F 61.3 °F 86% 29.89 in 4.0 mi WNW 5.8 mph - N/A   Haze
5:55 PM 65.3 °F 61.9 °F 89% 29.89 in 5.0 mi WNW 5.8 mph - N/A   Overcast
6:18 PM 65.5 °F 61.7 °F 88% 29.89 in 7.0 mi WNW 5.8 mph - N/A   Overcast
6:36 PM 65.3 °F 61.9 °F 89% 29.89 in 7.0 mi NW 4.6 mph - N/A   Overcast
6:55 PM 64.6 °F 61.9 °F 91% 29.89 in 3.0 mi WNW 3.5 mph - N/A   Overcast
6:56 PM 64.8 °F 62.1 °F 91% 29.89 in 3.0 mi Calm Calm - N/A   Overcast
7:15 PM 64.6 °F 62.1 °F 92% 29.89 in 5.0 mi Calm Calm - N/A   Overcast
7:39 PM 64.6 °F 62.1 °F 92% 29.90 in 3.0 mi NW 3.5 mph - N/A   Overcast
7:57 PM 63.9 °F 62.2 °F 94% 29.91 in 2.5 mi Calm Calm - N/A   Overcast
8:15 PM 63.9 °F 62.6 °F 96% 29.91 in 1.5 mi Calm Calm - N/A   Overcast
8:16 PM 63.9 °F 62.6 °F 96% 29.91 in 1.5 mi Calm Calm - N/A   Overcast
8:35 PM 63.7 °F 62.6 °F 96% 29.91 in 1.8 mi Calm Calm - N/A   Overcast
8:36 PM 63.7 °F 62.6 °F 96% 29.91 in 1.8 mi Calm Calm - N/A Rain Light Rain
8:55 PM 63.9 °F 62.8 °F 96% 29.92 in 2.0 mi Calm Calm - N/A   Overcast
9:18 PM 63.9 °F 62.8 °F 96% 29.93 in 2.5 mi NNE 3.5 mph - N/A   Drizzle
9:36 PM 63.5 °F 62.6 °F 97% 29.94 in 3.0 mi NNE 9.2 mph - 0.01 in Rain Light Rain
9:55 PM 63.1 °F 61.9 °F 96% 29.94 in 5.0 mi North 3.5 mph - 0.01 in   Light Drizzle
9:56 PM 63.3 °F 61.9 °F 95% 29.94 in 5.0 mi North 3.5 mph - 0.01 in   Overcast
10:15 PM 63.0 °F 61.7 °F 96% 29.95 in 7.0 mi North 3.5 mph - N/A   Overcast
10:39 PM 61.9 °F 60.6 °F 96% 29.96 in 5.0 mi NNW 3.5 mph - N/A   Mostly Cloudy
10:56 PM 60.8 °F 59.4 °F 95% 29.96 in 3.0 mi NW 3.5 mph - N/A   Mostly Cloudy
11:15 PM 61.2 °F 60.3 °F 97% 29.96 in 3.0 mi NW 4.6 mph - N/A   Overcast
11:16 PM 61.3 °F 60.3 °F 96% 29.96 in 3.0 mi NW 4.6 mph - N/A   Overcast
11:35 PM 61.2 °F 60.1 °F 96% 29.96 in 3.0 mi NNW 3.5 mph - N/A   Overcast
11:36 PM 61.0 °F 59.9 °F 96% 29.96 in 3.0 mi NNW 3.5 mph - N/A   Overcast
11:55 PM 61.0 °F 59.9 °F 96% 29.96 in 2.5 mi NW 3.5 mph - N/A   Overcast